TimeCDT,TemperatureF,Dew PointF,Humidity,Sea Level PressureIn,VisibilityMPH,Wind Direction,Wind SpeedMPH,Gust SpeedMPH,PrecipitationIn,Events,Conditions,WindDirDegrees,DateUTC
12:51 AM,72.0,66.9,84,29.96,9.0,ESE,8.1,-,0.00,Rain-Thunderstorm,Light Thunderstorms and Rain,120,2013-04-02 05:51:00
1:25 AM,71.6,66.2,83,29.95,10.0,ESE,12.7,-,0.00,,Mostly Cloudy,110,2013-04-02 06:25:00
1:51 AM,72.0,66.9,84,29.94,10.0,ESE,12.7,-,0.00,,Mostly Cloudy,120,2013-04-02 06:51:00
2:51 AM,72.0,66.9,84,29.92,10.0,SE,13.8,-,N/A,,Overcast,130,2013-04-02 07:51:00
3:51 AM,72.0,68.0,87,29.90,10.0,SE,11.5,-,N/A,,Overcast,130,2013-04-02 08:51:00
4:51 AM,72.0,68.0,87,29.91,10.0,SSE,10.4,-,N/A,,Overcast,160,2013-04-02 09:51:00
5:21 AM,71.6,66.2,83,29.90,10.0,SSE,12.7,-,N/A,,Overcast,150,2013-04-02 10:21:00
5:51 AM,71.1,66.9,87,29.87,9.0,East,11.5,-,N/A,,Scattered Clouds,100,2013-04-02 10:51:00
6:00 AM,71.6,66.2,83,29.89,10.0,ESE,8.1,-,N/A,,Overcast,120,2013-04-02 11:00:00
6:16 AM,71.6,68.0,88,29.91,10.0,SSE,6.9,-,N/A,,Overcast,160,2013-04-02 11:16:00
6:51 AM,72.0,66.9,84,29.91,10.0,SE,9.2,-,N/A,,Overcast,130,2013-04-02 11:51:00
6:58 AM,71.6,66.2,83,29.91,10.0,ESE,11.5,-,N/A,,Overcast,120,2013-04-02 11:58:00
7:51 AM,72.0,66.9,84,29.92,9.0,ESE,8.1,-,N/A,,Mostly Cloudy,120,2013-04-02 12:51:00
8:18 AM,73.4,68.0,83,29.93,10.0,ESE,6.9,-,N/A,,Scattered Clouds,110,2013-04-02 13:18:00
8:35 AM,73.4,68.0,83,29.94,10.0,East,3.5,-,N/A,,Mostly Cloudy,90,2013-04-02 13:35:00
8:44 AM,73.4,68.0,83,29.95,10.0,ESE,5.8,-,N/A,,Mostly Cloudy,120,2013-04-02 13:44:00
8:51 AM,73.9,68.0,82,29.95,10.0,SE,6.9,-,N/A,,Mostly Cloudy,140,2013-04-02 13:51:00
9:21 AM,75.2,68.0,78,29.94,10.0,East,9.2,-,N/A,,Mostly Cloudy,80,2013-04-02 14:21:00
9:51 AM,75.0,68.0,79,29.94,10.0,East,12.7,-,N/A,,Mostly Cloudy,90,2013-04-02 14:51:00
10:51 AM,77.0,68.0,74,29.94,10.0,East,12.7,-,N/A,,Mostly Cloudy,90,2013-04-02 15:51:00
11:51 AM,77.0,68.0,74,29.95,10.0,East,11.5,-,N/A,,Mostly Cloudy,100,2013-04-02 16:51:00
12:17 PM,78.8,68.0,69,29.95,10.0,East,11.5,-,N/A,,Mostly Cloudy,90,2013-04-02 17:17:00
12:51 PM,77.0,68.0,74,29.94,10.0,East,12.7,-,N/A,,Mostly Cloudy,90,2013-04-02 17:51:00
1:51 PM,80.1,69.1,69,29.90,10.0,East,15.0,-,0.00,,Mostly Cloudy,90,2013-04-02 18:51:00
2:51 PM,81.0,68.0,65,29.85,10.0,East,15.0,-,N/A,,Mostly Cloudy,100,2013-04-02 19:51:00
3:51 PM,79.0,68.0,69,29.82,10.0,East,15.0,-,N/A,,Overcast,100,2013-04-02 20:51:00
4:00 PM,80.6,68.0,65,29.82,10.0,East,16.1,-,N/A,,Mostly Cloudy,100,2013-04-02 21:00:00
4:51 PM,81.0,68.0,65,29.80,10.0,East,16.1,-,N/A,,Mostly Cloudy,100,2013-04-02 21:51:00
5:51 PM,80.1,68.0,67,29.78,10.0,SE,18.4,21.9,N/A,,Mostly Cloudy,130,2013-04-02 22:51:00
6:51 PM,77.0,68.0,74,29.78,10.0,East,15.0,-,N/A,,Overcast,100,2013-04-02 23:51:00
7:51 PM,75.9,69.1,79,29.78,10.0,ESE,13.8,-,N/A,,Overcast,110,2013-04-03 00:51:00
8:42 PM,75.2,69.8,83,29.79,10.0,ESE,11.5,-,N/A,,Overcast,110,2013-04-03 01:42:00
8:51 PM,75.0,69.1,82,29.79,10.0,ESE,12.7,-,N/A,,Overcast,110,2013-04-03 01:51:00
9:51 PM,75.0,69.1,82,29.82,10.0,East,12.7,-,N/A,,Overcast,90,2013-04-03 02:51:00
10:51 PM,73.9,69.1,85,29.83,10.0,East,11.5,-,0.00,,Light Drizzle,80,2013-04-03 03:51:00
11:07 PM,73.4,69.8,88,29.84,9.0,ENE,11.5,-,0.00,,Light Drizzle,70,2013-04-03 04:07:00
11:51 PM,73.9,69.1,85,29.82,8.0,ENE,11.5,-,0.00,,Overcast,70,2013-04-03 04:51:00